Regional Weather Roundup
Issued by NWS

Home | Current Version | Previous Version | Graphics & Text | Print | Product List | Glossary On
Versions: 1 2 3 4 5 6 7 8 9 10 11 12 13 14 15 16 17 18 19 20 21 22 23 24 25 26 27 28 29 30 31 32 33 34 35 36 37 38 39 40 41 42 43 44 45 46 47 48 49 50
000
ASUS43 KMPX 121801
RWRMN
WEATHER ROUNDUP FOR MINNESOTA
NATIONAL WEATHER SERVICE TWIN CITIES/CHANHASSEN MN
1200 PM CST FRI FEB 12 2016


NOTE: "FAIR" INDICATES FEW OR NO CLOUDS BELOW 12,000 FEET WITH NO
SIGNIFICANT WEATHER AND/OR OBSTRUCTIONS TO VISIBILITY. N/A MEANS
CURRENT SKY AND/OR WEATHER CONDITIONS ARE NOT AVAILABLE.

MNZ060>063-068>070-121900-
   Twin Cities Metro

CITY           SKY/WX    TMP DP  RH WIND       PRES   REMARKS
TWIN CITIES    SUNNY     10  -5  50 NW15G25   30.44R WCI  -7
6HR MIN TEMP:   7; 6HR MAX TEMP:  10;

ST PAUL        SUNNY      9  -5  53 NW17      30.45R WCI  -9
CRYSTAL        SUNNY      8  -7  50 NW18G25   30.44R WCI -11
BLAINE         SUNNY      9  -8  47 NW21G29   30.44R WCI -11
LAKEVILLE      SUNNY      9  -4  56 NW21      30.41R WCI -11
EDEN PRAIRIE   SUNNY      9  -6  50 NW18G29   30.44R WCI -10
6HR MIN TEMP:   7; 6HR MAX TEMP:  10;

SOUTH ST PAUL  SUNNY     10  -6  47 NW16G24   30.43R WCI  -7
LAKE ELMO      FAIR      10  -6  48 N14       30.42R WCI  -5
$$
MNZ001>005-007-008-013>017-022>024-027-028-121900-
   Northwest Minnesota

CITY           SKY/WX    TMP DP  RH WIND       PRES   REMARKS
BEMIDJI        SUNNY     -5 -16  57 NW13      30.50R WCI -24
HALLOCK        SUNNY     -8 -17  65 N20       30.65R WCI -32
ROSEAU         MOSUNNY   -8 -15  71 W10       30.57S WCI -26
WARROAD        MOSUNNY   -8 -18  59 NW12G18   30.55R WCI -27
THIEF RVR FALL SUNNY     -6 -20  49 NW16      30.60R WCI -28
CROOKSTON      SUNNY     -6 -11  77 N16       30.66R WCI -28
FOSSTON        SUNNY     -2 -17  50 NW13      30.56R WCI -21
DETROIT LAKES  SUNNY      0  -9  65 N16       30.55R WCI -21
MOORHEAD       SUNNY      0 -11  60 N18       30.64S WCI -22
PARK RAPIDS    SUNNY      0 -16  46 NW20G30   30.47R WCI -22
MAHNOMEN       FAIR      -5 -15  63 N13       30.56R WCI -24
$$
MNZ006-009>011-018-025>026-121900-
   North Central Minnesota

CITY           SKY/WX    TMP DP  RH WIND       PRES   REMARKS
BAUDETTE       SUNNY     -9 -20  58 NW16      30.50R WCI -32
FLAG ISLAND    SUNNY     -9 -18  64 NW15      30.52R WCI -31
INTL FALLS     SUNNY     -6 -20  50 W14       30.45R WCI -26
6HR MIN TEMP: -12; 6HR MAX TEMP:  -6;

WASKISH        SUNNY     -4 -17  54 W12       30.50S WCI -22
LONGVILLE      SUNNY     -2 -17  50 NW9G18    30.46R WCI -18
GRAND RAPIDS   SUNNY     -4 -15  59 NW17      30.41R WCI -26
CRANE LAKE     SUNNY     -8 -20  54 N10       30.43R WCI -26
ORR            SUNNY     -6 -20  49 NW15      30.37R WCI -27
COOK           SUNNY     -4 -18  50 NW12G17   30.39R WCI -22
WALKER         FAIR      -4 -17  52 NW10G23   30.48R WCI -21
$$
MNZ012-019>021-037-121900-
   Northeast Minnesota

CITY           SKY/WX    TMP DP  RH WIND       PRES   REMARKS
DULUTH         MOSUNNY   -2 -17  49 N16G25    30.33R WCI -23
6HR MIN TEMP:  -4; 6HR MAX TEMP:   0;

ELY            SUNNY     -8 -18  59 NW13G20   30.33R WCI -28
HIBBING        SUNNY     -6 -16  61 NW18      30.39R WCI -29
EVELETH        SUNNY     -2 -18  46 NW13G24   30.38R WCI -21
DULUTH HARBOR  SUNNY      3 -13  47 NW18      30.43R WCI -17
TWO HARBORS    SUNNY      3 -15  43 N12G20    30.33R WCI -13
SILVER BAY     SUNNY      1 -18  39 NW5G20    30.31S WCI  -8
GRAND MARAIS     N/A     -2 -20  42 VRB7G21   30.35R WCI -15
G MARAIS ARPRT SUNNY     -9 -24  49 NW13G24   30.17R WCI -30
$$
MNZ029>031-032-039>041-046>048-054>057-064-121900-
   West Central Minnesota

CITY           SKY/WX    TMP DP  RH WIND       PRES   REMARKS
FERGUS FALLS   SUNNY      0  -9  65 N20G26    30.62R WCI -22
WHEATON        PTSUNNY    3  -2  78 NW17G24   30.63R HAZE    WCI -17
MORRIS         MOSUNNY    3  -6  66 N26       30.55R WCI -20
ALEXANDRIA     SUNNY      1 -11  57 N14       30.49R WCI -17
ELBOW LAKE     FAIR       0  -9  65 N21       30.55S HAZE    WCI -22
WADENA         SUNNY      1 -11  55 N12       30.49R WCI -15
GLENWOOD       SUNNY      1  -9  60 N16       30.50R WCI -18
APPLETON       MOSUNNY    7  -2  66 N24       30.57R HAZE    WCI -15
BENSON         SUNNY      5  -6  61 N17G23    30.55R WCI -14
ORTONVILLE     CLOUDY     3  -6  66 N18G25    30.58S HAZE    WCI -17
MADISON        PTSUNNY    7  -2  66 NW22      30.58R WCI -14
WILLMAR        FAIR       9  -2  61 N18       30.52R WCI -10
$$
MNZ033>034-036-042>043-049>051-058-059-121900-
   Central Minnesota

CITY           SKY/WX    TMP DP  RH WIND       PRES   REMARKS
ST CLOUD       SUNNY      4 -10  52 N17G24    30.47R WCI -16
6HR MIN TEMP:   1; 6HR MAX TEMP:   5;

SAUK CENTRE    FAIR       2  -9  59 NW17      30.49R WCI -18
PAYNESVILLE    SUNNY      4  -7  61 NW18      30.49R WCI -16
AITKIN         SUNNY      3 -18  36 NW13G18   30.42R WCI -14
PINE RIVER     SUNNY      0 -13  55 NW12G18   30.48R WCI -18
BRAINERD       SUNNY      2 -13  49 NW20      30.46R WCI -19
STAPLES        SUNNY      1 -15  46 N15       30.48R WCI -18
LONG PRAIRIE   FAIR       1 -11  55 NW16      30.47R WCI -18
LITTLE FALLS   SUNNY      3 -13  47 NW13      30.49R WCI -14
LITCHFIELD     SUNNY      7  -6  56 NW16G23   30.48R WCI -11
BUFFALO        SUNNY      6  -6  57 NW12G21   30.48R WCI  -9
MAPLE LAKE     SUNNY      8  -4  58 NW17      30.48R WCI -11
$$
MNZ037-044-045-052-053-121900-
   East Central Minnesota

CITY           SKY/WX    TMP DP  RH WIND       PRES   REMARKS
PRINCETON      SUNNY      7  -9  47 NW15G21   30.46R WCI -11
MORA           SUNNY      5  -9  51 NW13G23   30.45R WCI -12
CAMBRIDGE      SUNNY      7  -8  51 NW14G22   30.43R WCI -10
RUSH CITY      MOSUNNY    6 -11  45 NW10G17   30.43R WCI  -8
MOOSE LAKE     SUNNY      3 -15  43 N9G21     30.40R WCI -11
HINCKLEY       FAIR       5  -9  51 NW14      30.42R WCI -12
CLOQUET        SUNNY      0 -17  46 NW18G24   30.37R WCI -22
MCGREGOR       SUNNY      3 -13  47 NW17      30.43R WCI -17
$$
MNZ071>073-080-081-089-090-097-098-121900-
   Southwest Minnesota

CITY           SKY/WX    TMP DP  RH WIND       PRES   REMARKS
MONTEVIDEO     PTSUNNY    7  -2  66 N20G25    30.56S HAZE    WCI -13
GRANITE FALLS  MOSUNNY    8  -2  64 NW20G26   30.57R WCI -11
CANBY          MOSUNNY    9  -1  64 NW14G23   30.58R WCI  -8
MARSHALL       SUNNY      6  -1  73 N18       30.54R WCI -13
REDWOOD FALLS  SUNNY      8  -4  58 NW14G26   30.52R WCI  -8
OLIVIA         SUNNY     10   0  61 NW22G31   30.50R WCI  -9
PIPESTONE      SUNNY     10  -6  48 N14G21    30.49R WCI  -5
WINDOM         SUNNY      7   1  78 NW22      30.46R HAZE    WCI -14
WORTHINGTON    SUNNY      9   0  66 N22       30.49R WCI -11
JACKSON        SUNNY     10   0  61 NW20G30   30.46R WCI  -8
TRACY          SUNNY      9   1  68 NW21G26   30.51R WCI -10
SLAYTON        SUNNY      7  -1  70 N20G25    30.49R WCI -13
$$
MNZ065>067-074>077-082>085-091>093-121900-
   South Central Minnesota

CITY           SKY/WX    TMP DP  RH WIND       PRES   REMARKS
MANKATO        SUNNY    N/A N/A N/A NW22G29   30.44R
NEW ULM        SUNNY     10  -2  56 NW20G29   30.47R WCI  -8
ST JAMES       SUNNY     10   3  72 NW22G28   30.48S WCI  -9
FAIRMONT       SUNNY     10   0  61 NW24G30   30.44R WCI -10
GLENCOE        SUNNY      9  -1  62 NW16G22   30.47R WCI  -8
OWATONNA       SUNNY     10  -2  56 NW23      30.40R WCI -10
WASECA         SUNNY     12   1  62 NW22      30.43R WCI  -7
ALBERT LEA     SUNNY     10  -2  56 NW15G24   30.38R WCI  -6
$$
MNZ078>079-086>088-094>096-121900-
   Southeast Minnesota

CITY           SKY/WX    TMP DP  RH WIND       PRES   REMARKS
ROCHESTER      SUNNY      9  -1  64 NW29      30.32R BLWGSNOWWCI -13
6HR MIN TEMP:   7; 6HR MAX TEMP:   9;

RED WING       SUNNY     10  -8  44 NW12G22   30.39R WCI  -4
STANTON        SUNNY     11  -2  54 NW18      30.40R WCI  -7
DODGE CENTER   SUNNY     10  -2  56 NW25G31   30.34R WCI -10
WINONA         SUNNY     18   1  49 NW21G26   30.36R WCI   1
AUSTIN         SUNNY     10   0  61 NW22G28   30.36R WCI  -9
PRESTON        SUNNY     11  -2  57 NW16      30.31R WCI  -6
$$
ABBREVIATIONS USED IN REMARKS
   TC - TEMPERATURES IN CELSIUS
  WCI - WIND CHILL INDEX
   HX - HEAT INDEX
  VSB - VISIBILITY
$$



USA.gov is the U.S. government's official web portal to all federal, state and local government web resources and services.